User: anonymous   Login
Location: Forst
(46.9333°N, 15.4333°E)
Time: 11:42:21
(UTC+00:00)
Language:

Meteor 1-27 Rocket - Orbit

View from above orbital plane
View from above orbital plane
View from above satellite
View from above satellite

Ground track
Ground track

The orbit data is extracted from the following two-line orbital elements,

1 09904U 77024B   21061.71560909  .00000075  00000-0  36800-4 0  9992
2 09904  81.2590 260.9518 0054980 112.6572 248.0425 14.06901008253037
Epoch (UTC): 02 March 2021 17:10:28
Eccentricity: 0.0054980
inclination: 81.2590°
perigee height: 830 km
apogee height: 910 km
right ascension of ascending node: 260.9518°
argument of perigee: 112.6572°
revolutions per day: 14.06901008
mean anomaly at epoch: 248.0425°
orbit number at epoch: 25303

The dashed part of the orbit path shows where the satellite is in the earth's shadow,  

DLR